Regional Weather Roundup
Issued by NWS

Home | Current Version | Previous Version | Text Only | Print | Product List | Glossary Off
Versions: 1 2 3 4 5 6 7 8 9 10 11 12 13 14 15 16 17 18 19 20 21 22 23 24 25 26 27 28 29 30 31 32 33 34 35 36 37 38 39 40 41 42 43 44 45 46 47 48 49 50

000
ASUS43 KTOP 021859
RWRKS

WEATHER ROUNDUP FOR KANSAS
NATIONAL WEATHER SERVICE GOODLAND KS
200 PM CDT SUN AUG 02 2015

NOTE:  "FAIR" INDICATES FEW OR NO CLOUDS BELOW 12,000 FEET WITH NO
SIGNIFICANT WEATHER AND/OR OBSTRUCTIONS TO VISIBILITY.

KSZ001>006-013>018-027>032-041>047-022000-
NORTHWEST KANSAS

CITY           SKY/WX    TMP DP  RH WIND       PRES   REMARKS
GOODLAND       MOSUNNY   92  55  28 S5        29.99F
HAYS           SUNNY     93  66  40 S6        29.91F HX  96
HILL CITY      SUNNY     94  67  41 S8        29.92F HX  97
RUSSELL        SUNNY     94  66  39 S8        29.89F HX  97
$$

KSZ061>065-074>080-084>089-022000-
SOUTHWEST KANSAS

CITY           SKY/WX    TMP DP  RH WIND       PRES   REMARKS
DODGE CITY     SUNNY     89  63  41 S9        29.96F
ELKHART          N/A     86  68  55 SE7         N/A
GARDEN CITY    SUNNY     88  64  44 SE8       29.96F
GREAT BEND     MOSUNNY   91  66  43 S12       29.90F
LIBERAL        SUNNY     90  66  45 SE7       29.96S
$$

KSZ066>073-081>083-090>101-022000-
SOUTHEAST KANSAS

CITY           SKY/WX    TMP DP  RH WIND       PRES   REMARKS
CHANUTE        SUNNY     92  64  39 SW14G21   29.92F
COFFEYVILLE    SUNNY     92  64  39 SW18G24   29.93F
HUTCHINSON     SUNNY     91  68  46 S15G23    29.92F HX  95
MEDICINE LODGE   N/A     87  70  56 S8        29.92F
NEWTON         SUNNY     88  68  51 SW16      29.95F
PARSONS        SUNNY     91  64  40 SW12G22   29.95F
WICHITA INTL   MOSUNNY   89  70  53 SW14      29.92F
WICHITA JABRA  MOSUNNY   90  70  51 SW16      29.93F HX  95
WINFIELD       MOSUNNY   89  70  53 SW12      29.95F
$$

KSZ007>012-019>026-033>040-048>060-102>105-022000-
NORTHEAST KANSAS

CITY           SKY/WX    TMP DP  RH WIND       PRES   REMARKS
CONCORDIA      SUNNY     93  65  39 SW8       29.88F HX  95
EMPORIA        SUNNY     90  67  46 SW14G21   29.92S
LAWRENCE       SUNNY     91  67  44 W14G21    29.89F
MANHATTAN      SUNNY     93  69  45 SW10G17   29.87F HX  98
OLATHE IND     SUNNY     91  66  43 W13       29.92F
OLATHE EXE     SUNNY     90  65  43 SW8G20    29.91F
SALINA         SUNNY     95  67  39 VRB7      29.89F HX  99
TOPEKA BILLARD SUNNY     91  69  48 SW15      29.89F HX  96
TOPEKA FORBES  SUNNY     93  68  43 SW14G22   29.90F HX  97
$$


USA.gov is the U.S. government's official web portal to all federal, state and local government web resources and services.